Погода в Лоне

Германия     52°39′54″N   8°14′02″E
темп.,
°C
ветер,
м/с
пор.,
м/с
влажн.,
%
обл.,
%
осадки,
мм/ч
давл.,
гПа
погр.,
м
18 мая, вт
вт1823:00+8зсз489750 0.6 1007233
02:00+6з379712 0.6 1009142
05:00+5зюз379892 0.0 1009142
08:00+8зюз359399 0.0 1011295
11:00+12зюз4573100 0.3 10111030
14:00+14з556599 0.5 10111485
17:00+13зсз357673 1.4 1012646
20:00+11ссз358963 2.9 1013246
19 мая, ср
ср1923:00+7с119226 0.3 101410
02:00+6зюз229448 0.3 101510
05:00+7юз34955 0.0 101487
08:00+9юз358969 0.0 1015266
11:00+12юз567983 0.4 10151163
14:00+13юз5678100 2.3 10141119
17:00+12зсз4684100 2.4 1014549
20:00+11сз2287100 3.4 101522
20 мая, чт
чт2023:00+8с239423 0.1 101737
02:00+6сз22960 0.2 101835
05:00+4зсз34953 0.0 101967
08:00+8з35903 0.0 1020269
11:00+12зюз457155 0.1 10201202
14:00+14зюз566892 0.4 10191198
17:00+15юз4762100 0.1 10181587
20:00+12юз4984100 0.8 1017345
21 мая, пт
пт2123:00+10юз3488100 0.3 101678
02:00+9ю4993100 0.4 1014235
05:00+10ю61487100 0.0 1010598
08:00+10ююз71491100 0.2 1009912
11:00+10ююз81491100 0.4 1007869
14:00+13ююз81283100 1.3 10051162
17:00+15юз8127215 0.6 10031581
20:00+12юз7138282 2.4 1003684
22 мая, сб
сб2223:00+8ю5129036 0.2 1002277
02:00+9ю7149243 0.3 1000503
05:00+9ююз816917 0.1 1000750
08:00+10ююз10168599 0.1 9991085
11:00+9ююз101787100 0.6 10001442
14:00+9юз91592100 1.5 10011170
17:00+9юз61195100 0.2 1003702
20:00+10з610866 0.6 1005877